Location: Dumpton Point
(51.3500°N, 1.4433°E)
Time: 16:36:37
(UTC+00:00)

S-56A Canister/Altair - Visible Passes

Search period start: 07 October 2022 00:00
Search period end: 17 October 2022 00:00
Orbit: 637 x 2496 km, 38.9° (Epoch: 06 October)

Date Brightness Start Highest point End Pass type
(mag) Time Alt. Az. Time Alt. Az. Time Alt. Az.
07 Oct 10.3 01:31:05 21° ESE 01:31:05 21° ESE 01:33:25 10° ESE visible
07 Oct 9.4 03:28:31 33° SSW 03:29:13 33° SSW 03:35:35 10° SE visible
07 Oct 10.0 05:27:40 10° WSW 05:31:35 14° SW 05:34:56 10° S visible
08 Oct 10.7 01:00:15 13° ESE 01:00:15 13° ESE 01:00:59 10° ESE visible
08 Oct 9.5 02:57:41 35° S 02:57:41 35° S 03:03:23 10° SE visible
08 Oct 9.9 04:55:08 13° WSW 04:59:06 18° SW 05:03:29 10° S visible
09 Oct 9.8 02:26:55 30° SSE 02:26:55 30° SSE 02:31:08 10° SE visible
09 Oct 9.8 04:24:22 19° SW 04:26:34 21° SW 04:31:47 10° S visible
10 Oct 10.2 01:56:13 22° SE 01:56:13 22° SE 01:58:48 10° ESE visible
10 Oct 9.8 03:53:40 25° SW 03:53:58 25° SSW 03:59:55 10° SSE visible
10 Oct 11.4 20:58:31 10° S 20:58:41 10° S 20:58:41 10° S visible
11 Oct 10.7 01:25:35 14° ESE 01:25:35 14° ESE 01:26:25 10° ESE visible
11 Oct 9.8 03:23:03 27° SSW 03:23:03 27° SSW 03:27:56 10° SSE visible
11 Oct 11.2 20:25:49 10° S 20:28:29 15° S 20:28:29 15° S visible
12 Oct 10.0 02:52:29 23° S 02:52:29 23° S 02:55:50 10° SSE visible
12 Oct 10.3 04:49:57 11° SW 04:50:41 11° SW 04:53:05 10° SSW visible
12 Oct 11.0 19:53:19 10° S 19:58:13 17° SSE 19:58:13 17° SSE visible
12 Oct 11.3 21:53:56 10° SW 21:55:42 14° SW 21:55:42 14° SW visible
13 Oct 10.5 02:22:00 17° SSE 02:22:00 17° SSE 02:23:39 10° SE visible
13 Oct 10.3 04:19:28 14° SW 04:19:28 14° SW 04:22:25 10° SSW visible
13 Oct 11.0 19:21:01 10° S 19:27:55 18° SE 19:27:55 18° SE visible
13 Oct 11.0 21:20:46 10° SW 21:25:23 22° SSW 21:25:23 22° SSW visible
14 Oct 10.3 03:49:03 15° SSW 03:49:03 15° SSW 03:51:02 10° S visible
14 Oct 11.0 18:49:00 10° SSE 18:56:35 16° SE 18:57:32 16° SE visible
14 Oct 10.7 20:47:42 10° SSW 20:55:00 28° S 20:55:00 28° S visible
14 Oct 11.5 22:51:27 10° WSW 22:52:28 13° WSW 22:52:28 13° WSW visible
15 Oct 10.6 03:18:42 12° S 03:18:42 12° S 03:19:21 10° S visible
15 Oct 11.0 18:17:23 10° SSE 18:23:35 14° SE 18:27:03 13° ESE visible
15 Oct 10.6 20:14:45 10° SSW 20:24:30 31° SSE 20:24:30 31° SSE visible
15 Oct 11.1 22:18:02 10° WSW 22:21:58 21° SW 22:21:58 21° SW visible
16 Oct 11.2 17:46:35 10° SE 17:50:36 12° SE 17:54:40 10° ESE visible
16 Oct 10.5 19:41:57 10° SSW 19:53:52 31° SSE 19:53:56 31° SSE visible
16 Oct 10.8 21:44:41 10° SW 21:51:23 30° SW 21:51:23 30° SW visible
